1489093200.94,40209,9.69,73074.5,-8.41,-38.17,-39.09,0,*5C
1489093202.19,40210,9.69,73078.3,-8.39,-38.35,-39.23,0,*53
1489093203.45,40211,9.69,73078.3,-8.39,-38.29,-39.09,0,*57
1489093204.7,40212,9.69,73078.5,-8.39,-38.35,-39.23,0,*51
1489093205.96,40213,9.69,73076.8,-8.39,-38.55,-39.23,0,*56
1489093207.21,40214,9.69,73080.5,-8.39,-37.99,-38.73,0,*5A
1489093208.49,40215,9.69,73072.0,-8.39,-37.99,-38.67,0,*5E
1489093209.73,40216,9.69,73086.0,-8.37,-37.87,-38.49,0,*50
1489093211.0,40217,9.69,73076.3,-8.35,-37.87,-38.49,0,*53
1489093212.29,40218,9.69,73062.0,-8.35,-37.81,-38.49,0,*5A
1489093213.56,40219,9.69,73054.3,-8.35,-37.87,-38.49,0,*5D
1489093214.79,40220,9.69,73062.3,-8.35,-38.43,-38.97,0,*53
1489093215.99,40221,9.69,73064.8,-8.33,-38.35,-38.97,0,*55
1489093217.23,40222,9.69,73062.8,-8.29,-38.35,-39.15,0,*56
1489093218.43,40223,9.69,73060.0,-8.33,-38.35,-39.09,0,*51
1489093219.67,40224,9.69,73052.5,-8.33,-38.35,-39.15,0,*5B
1489093220.9,40225,9.69,73050.0,-8.29,-38.43,-39.15,0,*50
1489093222.13,40226,9.69,73058.8,-8.29,-38.73,-39.53,0,*52
1489093223.39,40227,9.69,73060.0,-8.33,-38.79,-39.59,0,*58
1489093224.65,40228,9.69,73062.0,-8.33,-38.91,-39.59,0,*51
1489093225.88,40229,9.69,73064.0,-8.33,-38.97,-39.71,0,*5C
1489093227.1,40230,9.69,73072.5,-8.33,-39.09,-39.91,0,*5C
1489093228.35,40231,9.69,73072.5,-8.33,-38.91,-39.59,0,*59
1489093229.59,40232,9.69,73070.8,-8.33,-38.97,-39.59,0,*5C
1489093230.82,40233,9.69,73070.8,-8.29,-38.23,-39.09,0,*5C
1489093232.06,40234,9.69,73070.5,-8.33,-38.23,-39.09,0,*50
1489093233.26,40235,9.69,73066.8,-8.33,-38.61,-39.35,0,*58
1489093234.49,40236,9.69,73070.5,-8.33,-38.61,-39.23,0,*5C
1489093235.72,40237,9.69,73066.8,-8.33,-38.55,-39.23,0,*5A
1489093236.92,40238,9.69,73068.3,-8.33,-38.61,-39.35,0,*55
1489093238.15,40239,9.69,73062.8,-8.33,-38.73,-39.53,0,*57
1489093239.38,40240,9.69,73064.3,-8.33,-38.97,-39.79,0,*5B
1489093240.62,40241,9.69,73064.8,-8.33,-39.09,-39.71,0,*54
1489093241.86,40242,9.69,73070.5,-8.33,-39.09,-39.79,0,*5F
1489093243.12,40243,9.69,73070.8,-8.35,-39.15,-39.85,0,*56
1489093244.38,40244,9.69,73070.3,-8.35,-39.23,-40.03,0,*54
1489093245.64,40245,9.69,73070.3,-8.35,-39.15,-39.65,0,*5E
1489093246.92,40246,9.69,73070.5,-8.35,-38.67,-39.23,0,*5B
1489093248.16,40247,9.69,73064.0,-8.29,-38.23,-39.09,0,*5F
1489093249.36,40248,9.69,73056.3,-8.33,-38.17,-38.97,0,*5A
1489093250.6,40249,9.69,73062.3,-8.29,-38.43,-39.23,0,*5F
1489093251.83,40250,9.69,73058.8,-8.33,-38.61,-39.53,0,*5B
1489093253.05,40251,9.69,73058.0,-8.33,-38.73,-39.53,0,*59
1489093254.31,40252,9.69,73060.5,-8.29,-38.91,-39.59,0,*57
1489093255.55,40253,9.69,73062.5,-8.29,-38.97,-39.71,0,*5A
1489093256.76,40254,9.69,73060.0,-8.33,-39.09,-39.91,0,*5E
1489093258.0,40255,9.69,73062.0,-8.33,-39.09,-39.79,0,*59
1489093259.22,40256,9.69,73064.3,-8.29,-39.09,-39.91,0,*57
1489093260.49,40257,9.69,73062.3,-8.35,-39.15,-40.15,0,*54
1489093261.74,40258,9.69,73064.3,-8.35,-39.03,-39.85,0,*5B
1489093262.98,40259,9.69,73064.0,-8.37,-39.15,-39.85,0,*5F
1489093264.24,40260,9.69,73060.8,-8.35,-39.15,-39.85,0,*57
1489093265.47,40261,9.69,73064.5,-8.37,-39.03,-39.85,0,*53
1489093266.74,40262,9.69,73060.3,-8.35,-39.15,-39.85,0,*55
1489093267.97,40263,9.69,73068.8,-8.37,-39.03,-39.85,0,*51
1489093269.23,40264,9.69,73064.5,-8.35,-39.15,-39.85,0,*53
1489093270.46,40265,9.69,73066.0,-8.37,-39.03,-39.85,0,*57
1489093271.7,40266,9.69,73062.5,-8.37,-39.15,-39.85,0,*53
1489093272.96,40267,9.69,73068.8,-8.35,-39.03,-39.85,0,*57
1489093274.21,40268,9.69,73068.0,-8.35,-38.79,-39.47,0,*5A
1489093275.47,40269,9.69,73062.0,-8.37,-38.29,-39.15,0,*5B
1489093276.73,40270,9.69,73058.5,-8.37,-38.23,-39.03,0,*5E
1489093277.96,40271,9.69,73066.5,-8.37,-38.61,-39.59,0,*56
1489093279.19,40272,9.69,73066.5,-8.37,-38.97,-39.79,0,*5E
1489093280.46,40273,9.69,73064.8,-8.37,-38.79,-39.59,0,*5D
1489093281.69,40274,9.69,73062.0,-8.37,-38.43,-39.23,0,*5E
1489093282.94,40275,9.69,73060.3,-8.37,-38.67,-39.59,0,*54
1489093284.18,40276,9.69,73066.0,-8.35,-38.97,-39.65,0,*55
1489093285.38,40277,9.69,73060.5,-8.37,-38.97,-39.65,0,*56
1489093286.64,40278,9.69,73062.5,-8.35,-38.97,-39.79,0,*56
1489093287.85,40279,9.69,73064.3,-8.37,-38.85,-39.85,0,*55
1489093289.11,40280,9.69,73066.3,-8.37,-39.03,-39.79,0,*5F
1489093290.38,40281,9.69,73064.5,-8.37,-39.15,-39.79,0,*59
1489093291.66,40282,9.69,73066.5,-8.39,-38.91,-39.71,0,*51
1489093292.86,40283,9.69,73062.8,-8.37,-38.97,-39.85,0,*53
1489093294.1,40284,9.69,73064.3,-8.39,-39.09,-39.91,0,*59
1489093295.33,40285,9.69,73064.3,-8.39,-39.09,-39.85,0,*5D
1489093296.59,40286,9.69,73066.8,-8.39,-39.03,-39.85,0,*54
1489093297.84,40287,9.69,73064.8,-8.39,-39.03,-39.85,0,*55
1489093299.1,40288,9.69,73066.3,-8.39,-38.91,-39.91,0,*55
1489093300.35,40289,9.69,73066.8,-8.39,-39.03,-39.85,0,*5B
1489093301.61,40290,9.69,73064.5,-8.41,-39.03,-39.71,0,*57
1489093302.84,40291,9.69,73068.3,-8.41,-39.23,-40.03,0,*5F
1489093304.08,40292,9.69,73064.8,-8.41,-39.03,-39.91,0,*5B
1489093305.33,40293,9.69,73070.3,-8.39,-39.03,-39.85,0,*50
1489093306.56,40294,9.69,73068.3,-8.41,-39.03,-39.85,0,*58
1489093307.82,40295,9.69,73068.5,-8.41,-38.91,-39.71,0,*58
1489093309.05,40296,9.69,73066.0,-8.41,-38.91,-39.85,0,*50
1489093310.31,40297,9.69,73068.0,-8.41,-38.91,-39.71,0,*5A
1489093311.54,40298,9.69,73068.3,-8.41,-38.91,-39.85,0,*5E
1489093312.76,40299,9.69,73068.0,-8.41,-38.67,-39.47,0,*58
1489093313.99,40300,9.69,73066.3,-8.41,-38.67,-39.65,0,*59
1489093315.23,40301,9.69,73064.8,-8.41,-39.03,-39.85,0,*55
1489093316.49,40302,9.69,73062.5,-8.41,-39.03,-39.71,0,*5D
1489093317.72,40303,9.69,73064.3,-8.43,-39.09,-39.91,0,*5A
1489093318.96,40304,9.69,73064.3,-8.45,-38.97,-39.79,0,*5B
1489093320.22,40305,9.69,73060.5,-8.43,-38.91,-39.91,0,*5C
1489093321.48,40306,9.69,73064.0,-8.43,-39.15,-39.91,0,*52
1489093322.76,40307,9.69,73064.5,-8.43,-38.91,-39.79,0,*58
1489093324.02,40308,9.69,73066.3,-8.43,-38.97,-39.79,0,*51
1489093325.27,40309,9.69,73060.3,-8.43,-38.97,-39.79,0,*50
1489093326.55,40310,9.69,73066.0,-8.43,-38.91,-39.79,0,*5E
1489093327.82,40311,9.69,73060.5,-8.45,-38.91,-39.79,0,*59
1489093329.09,40312,9.69,73062.5,-8.45,-38.79,-39.79,0,*5C
1489093330.33,40313,9.69,73062.0,-8.45,-38.91,-39.91,0,*5D
1489093331.56,40314,9.69,73060.0,-8.43,-38.97,-39.91,0,*5A
1489093332.82,40315,9.69,73060.5,-8.45,-38.91,-39.79,0,*5D
1489093334.08,40316,9.69,73062.5,-8.43,-38.91,-39.91,0,*5E
1489093335.33,40317,9.69,73060.0,-8.45,-38.79,-39.91,0,*5F
1489093336.59,40318,9.69,73064.3,-8.45,-38.91,-39.79,0,*50
1489093337.83,40319,9.69,73066.5,-8.45,-38.73,-39.79,0,*5D
1489093339.07,40320,9.69,73060.0,-8.47,-38.85,-39.85,0,*5F
1489093340.36,40321,9.69,73062.3,-8.47,-38.79,-39.79,0,*5E
1489093341.62,40322,9.69,73058.5,-8.47,-38.85,-39.79,0,*5E
1489093342.92,40323,9.69,73064.0,-8.47,-38.79,-39.79,0,*5C
1489093344.2,40324,9.69,73058.8,-8.47,-38.67,-39.59,0,*56
1489093345.49,40325,9.69,73060.8,-8.47,-38.79,-39.59,0,*58
1489093346.77,40326,9.69,73058.3,-8.47,-38.67,-39.59,0,*54
1489093348.06,40327,9.69,73062.3,-8.47,-38.49,-39.41,0,*50
1489093349.35,40328,9.69,73056.5,-8.47,-38.79,-39.79,0,*57
1489093350.59,40329,9.69,73062.0,-8.49,-38.79,-39.65,0,*55
1489093351.85,40330,9.69,73066.8,-8.47,-38.97,-39.79,0,*5E
1489093353.09,40331,9.69,73060.0,-8.49,-38.79,-39.65,0,*5C
1489093354.34,40332,9.69,73064.0,-8.47,-38.97,-39.79,0,*5C
1489093355.58,40333,9.69,73064.8,-8.49,-38.79,-39.65,0,*5E
1489093356.87,40334,9.69,73060.3,-8.47,-38.79,-39.79,0,*5A
1489093358.11,40335,9.69,73060.8,-8.49,-38.79,-39.85,0,*56
1489093359.34,40336,9.69,73060.3,-8.49,-38.67,-39.65,0,*54
1489093360.57,40337,9.69,73058.0,-8.49,-38.49,-39.47,0,*59
1489093361.83,40338,9.69,73062.3,-8.47,-38.29,-39.35,0,*5B
1489093363.06,40339,9.69,73062.3,-8.49,-38.43,-39.41,0,*5B
1489093364.32,40340,9.69,73062.0,-8.47,-38.79,-39.65,0,*54
1489093365.56,40341,9.69,73062.3,-8.49,-38.67,-39.65,0,*54
1489093366.79,40342,9.69,73056.5,-8.49,-38.49,-39.47,0,*5B
1489093368.05,40343,9.69,73060.8,-8.49,-38.49,-39.59,0,*55
1489093369.28,40344,9.69,73060.3,-8.49,-38.29,-39.47,0,*5B
1489093370.54,40345,9.69,73062.5,-8.49,-38.29,-39.23,0,*58
1489093371.79,40346,9.69,73058.5,-8.47,-38.05,-39.03,0,*59
1489093373.04,40347,9.69,73056.8,-8.47,-37.87,-38.85,0,*52
1489093374.31,40348,9.69,73056.0,-8.47,-38.11,-39.03,0,*52
1489093375.56,40349,9.69,73062.0,-8.47,-37.87,-38.85,0,*5C
1489093376.81,40350,9.69,73058.8,-8.47,-38.05,-39.03,0,*5E
1489093378.06,40351,9.69,73056.5,-8.47,-38.23,-39.35,0,*5E
1489093379.35,40352,9.69,73060.0,-8.47,-38.49,-39.59,0,*5B
1489093380.65,40353,9.69,73066.3,-8.47,-38.49,-39.59,0,*5A
1489093381.93,40354,9.69,73060.0,-8.47,-38.67,-39.79,0,*53
1489093383.17,40355,9.69,73060.8,-8.49,-38.49,-39.65,0,*5D
1489093384.4,40356,9.69,73068.8,-8.49,-38.49,-39.47,0,*5E
1489093385.67,40357,9.69,73064.3,-8.47,-38.61,-39.59,0,*54
1489093386.93,40358,9.69,73058.0,-8.47,-38.43,-39.59,0,*5B
1489093388.13,40359,9.69,73066.0,-8.49,-38.43,-39.47,0,*5B
1489093389.36,40360,9.69,73066.3,-8.47,-38.61,-39.47,0,*5F
1489093390.62,40361,9.69,73066.5,-8.49,-38.49,-39.59,0,*55
1489093391.91,40362,9.69,73058.8,-8.47,-38.29,-39.23,0,*53
1489093393.16,40363,9.69,73062.5,-8.49,-38.11,-39.23,0,*57
1489093394.41,40364,9.69,73062.0,-8.47,-38.43,-39.41,0,*5D
1489093395.71,40365,9.69,73062.0,-8.47,-38.49,-39.59,0,*5F
1489093396.97,40366,9.69,73058.0,-8.49,-38.49,-39.59,0,*52
1489093398.25,40367,9.69,73056.8,-8.47,-38.23,-39.23,0,*5C
1489093399.48,40368,9.69,73056.8,-8.49,-38.43,-39.41,0,*5F
1489093400.71,40369,9.69,73056.5,-8.49,-38.29,-39.47,0,*54
1489093401.97,40370,9.69,73060.5,-8.47,-38.43,-39.59,0,*51
1489093403.26,40371,9.69,73060.3,-8.47,-38.29,-39.59,0,*5C
1489093404.49,40372,9.69,73062.0,-8.47,-38.43,-39.47,0,*5C
1489093405.74,40373,9.69,73058.5,-8.47,-38.11,-39.35,0,*5F
1489093406.96,40374,9.69,73062.5,-8.49,-38.43,-39.41,0,*52
1489093408.17,40375,9.69,73060.8,-8.49,-38.43,-39.47,0,*55
1489093409.42,40376,9.69,73062.8,-8.49,-38.11,-39.23,0,*53
1489093410.67,40377,9.69,73062.0,-8.47,-38.11,-39.35,0,*5B
1489093411.88,40378,9.69,73062.0,-8.49,-37.87,-38.97,0,*53
1489093413.14,40379,9.69,73052.0,-8.47,-37.87,-38.79,0,*5C
1489093414.4,40380,9.69,73058.0,-8.47,-38.05,-39.15,0,*54
1489093415.65,40381,9.69,73058.8,-8.47,-38.23,-39.35,0,*53
1489093416.89,40382,9.69,73056.0,-8.49,-38.05,-39.15,0,*58
1489093418.16,40383,9.69,73060.0,-8.47,-38.11,-39.23,0,*57
1489093419.42,40384,9.69,73054.5,-8.47,-37.99,-38.97,0,*51
1489093420.71,40385,9.69,73062.5,-8.47,-37.99,-39.03,0,*5C
1489093421.93,40386,9.69,73062.8,-8.47,-38.05,-39.35,0,*50
1489093423.19,40387,9.69,73060.3,-8.49,-37.99,-39.03,0,*50
1489093424.45,40388,9.69,73062.5,-8.47,-37.99,-38.97,0,*5D
1489093425.68,40389,9.69,73062.3,-8.49,-38.05,-39.03,0,*54
1489093426.93,40390,9.69,73060.3,-8.47,-38.05,-39.15,0,*55
1489093428.21,40391,9.69,73052.5,-8.47,-38.11,-39.23,0,*54
1489093429.46,40392,9.69,73056.8,-8.47,-38.11,-39.35,0,*50
1489093430.74,40393,9.69,73056.8,-8.47,-38.23,-39.41,0,*53
1489093431.97,40394,9.69,73060.3,-8.47,-38.43,-39.47,0,*54
1489093433.17,40395,9.69,73060.5,-8.49,-38.43,-39.47,0,*5B
1489093434.43,40396,9.69,73058.5,-8.47,-38.43,-39.59,0,*59
1489093435.72,40397,9.69,73060.5,-8.47,-38.29,-39.59,0,*54
1489093436.94,40398,9.69,73064.3,-8.49,-38.11,-39.35,0,*54
1489093438.19,40399,9.69,73064.5,-8.47,-38.11,-39.35,0,*5B
1489093439.45,40400,9.69,73062.5,-8.47,-38.05,-39.03,0,*5C
1489093440.7,40401,9.69,73054.8,-8.49,-38.29,-39.41,0,*5B
1489093441.95,40402,9.69,73062.0,-8.47,-38.11,-39.47,0,*5B
1489093443.19,40403,9.69,73062.5,-8.49,-38.05,-39.15,0,*56
1489093444.44,40404,9.69,73060.0,-8.47,-38.05,-39.41,0,*5E
1489093445.68,40405,9.69,73060.8,-8.49,-38.29,-39.65,0,*59
1489093446.95,40406,9.69,73066.0,-8.47,-38.29,-39.65,0,*54
1489093448.2,40407,9.69,73066.0,-8.47,-38.23,-39.47,0,*5F
1489093449.42,40408,9.69,73060.0,-8.49,-38.11,-39.47,0,*5F
1489093450.7,40409,9.69,73056.5,-8.47,-38.11,-39.41,0,*56
1489093451.95,40410,9.69,73064.5,-8.49,-38.23,-39.59,0,*58
1489093453.18,40411,9.69,73068.0,-8.49,-38.29,-39.47,0,*5C
1489093454.41,40412,9.69,73064.8,-8.49,-38.11,-39.47,0,*54
1489093455.67,40413,9.69,73066.5,-8.51,-38.49,-39.65,0,*51
1489093456.9,40414,9.69,73064.0,-8.49,-38.11,-39.35,0,*57
1489093458.12,40415,9.69,73060.3,-8.49,-38.11,-39.47,0,*53
1489093459.35,40416,9.69,73060.3,-8.49,-38.23,-39.47,0,*51
1489093460.63,40417,9.69,73060.0,-8.51,-38.29,-39.53,0,*56
1489093461.88,40418,9.69,73054.8,-8.51,-38.17,-39.41,0,*57
1489093463.13,40419,9.69,73060.5,-8.51,-38.17,-39.53,0,*55
1489093464.37,40420,9.69,73066.0,-8.51,-38.17,-39.65,0,*5A
1489093465.6,40421,9.69,73060.0,-8.51,-38.17,-39.47,0,*5B
1489093466.88,40422,9.69,73066.3,-8.51,-38.29,-39.53,0,*50
1489093468.16,40423,9.69,73068.0,-8.51,-38.29,-39.53,0,*51
1489093469.44,40424,9.69,73066.0,-8.51,-37.93,-39.23,0,*5F
1489093470.7,40425,9.69,73062.3,-8.51,-38.05,-39.23,0,*5E
1489093471.94,40426,9.69,73068.5,-8.51,-37.87,-39.09,0,*50
1489093473.22,40427,9.69,73066.3,-8.51,-38.11,-39.41,0,*5D
1489093474.45,40428,9.63,73064.0,-8.51,-38.35,-39.65,0,*52
1489093475.71,40429,9.69,73070.5,-8.51,-38.17,-39.41,0,*55
1489093476.94,40430,9.69,73064.5,-8.51,-38.05,-39.09,0,*52
1489093478.18,40431,9.69,73062.8,-8.51,-37.87,-39.09,0,*56
1489093479.44,40432,9.69,73068.0,-8.51,-37.69,-38.97,0,*53
1489093480.69,40433,9.69,73066.8,-8.51,-37.75,-39.03,0,*53
1489093481.97,40434,9.69,73064.8,-8.51,-37.93,-39.03,0,*5C
1489093483.24,40435,9.69,73064.0,-8.49,-37.81,-39.23,0,*55
1489093484.49,40436,9.69,73066.3,-8.49,-37.99,-39.23,0,*5F
1489093485.72,40437,9.69,73066.5,-8.49,-38.11,-39.47,0,*53
1489093486.99,40438,9.69,73064.3,-8.51,-38.11,-39.29,0,*5D
1489093488.25,40439,9.69,73070.8,-8.51,-38.05,-39.23,0,*53
1489093489.45,40440,9.69,73062.8,-8.55,-38.17,-39.35,0,*5D
1489093490.7,40441,9.69,73064.0,-8.51,-38.05,-39.29,0,*56
1489093491.94,40442,9.69,73066.5,-8.51,-37.87,-39.09,0,*52
1489093493.2,40443,9.69,73066.3,-8.51,-37.75,-39.03,0,*54
1489093494.48,40444,9.69,73060.8,-8.51,-37.69,-39.03,0,*5E
1489093495.74,40445,9.69,73060.5,-8.51,-37.39,-38.85,0,*55
1489093496.99,40446,9.69,73060.8,-8.51,-37.75,-39.03,0,*51
1489093498.25,40447,9.69,73066.8,-8.51,-37.75,-39.03,0,*50
1489093499.48,40448,9.69,73066.3,-8.49,-37.69,-38.97,0,*57
1489093500.74,40449,9.69,73060.3,-8.49,-37.51,-38.79,0,*5D
1489093502.03,40450,9.69,73064.8,-8.47,-37.51,-38.79,0,*5B
1489093503.28,40451,9.69,73068.8,-8.49,-37.99,-39.23,0,*5E
1489093504.52,40452,9.69,73070.8,-8.49,-37.87,-39.15,0,*57
1489093505.75,40453,9.69,73068.0,-8.49,-37.87,-39.23,0,*53
1489093507.01,40454,9.69,73070.3,-8.47,-37.69,-38.97,0,*54
1489093508.25,40455,9.69,73068.5,-8.49,-37.51,-38.85,0,*53
1489093509.47,40456,9.69,73062.0,-8.49,-38.05,-39.23,0,*53
1489093510.76,40457,9.69,73066.8,-8.47,-37.99,-39.23,0,*56
1489093512.01,40458,9.69,73066.5,-8.49,-37.99,-39.23,0,*57
1489093513.21,40459,9.69,73068.5,-8.49,-38.05,-39.35,0,*5B
1489093514.45,40460,9.69,73068.3,-8.49,-37.87,-39.15,0,*56
1489093515.71,40461,9.69,73072.8,-8.49,-37.99,-39.15,0,*58
1489093516.91,40462,9.69,73070.5,-8.49,-38.05,-39.35,0,*53
1489093518.14,40463,9.69,73074.8,-8.49,-38.05,-39.41,0,*51
1489093519.36,40464,9.69,73074.8,-8.47,-38.05,-39.35,0,*5B
1489093520.59,40465,9.69,73074.8,-8.49,-38.05,-39.41,0,*57
1489093521.82,40466,9.69,73072.5,-8.49,-38.11,-39.47,0,*57
1489093523.07,40467,9.69,73076.8,-8.49,-38.11,-39.59,0,*59
1489093524.33,40468,9.69,73076.3,-8.49,-38.11,-39.59,0,*56
1489093525.57,40469,9.69,73070.5,-8.51,-37.75,-39.09,0,*56
1489093526.8,40470,9.69,73066.3,-8.51,-37.75,-39.09,0,*5E
1489093528.08,40471,9.69,73068.3,-8.51,-38.11,-39.53,0,*5D
1489093529.33,40472,9.69,73064.0,-8.51,-38.11,-39.47,0,*5B
1489093530.58,40473,9.69,73070.8,-8.49,-38.11,-39.59,0,*5C
1489093531.84,40474,9.63,73066.0,-8.51,-38.17,-39.53,0,*5E
1489093533.12,40475,9.69,73066.3,-8.51,-37.93,-39.29,0,*51
1489093534.37,40476,9.69,73066.5,-8.51,-38.11,-39.47,0,*5F
1489093535.59,40477,9.69,73070.0,-8.55,-38.11,-39.47,0,*5A
1489093536.87,40478,9.69,73068.5,-8.51,-37.93,-39.29,0,*5C
1489093538.09,40479,9.69,73072.3,-8.55,-38.11,-39.47,0,*54
1489093539.32,40480,9.63,73070.8,-8.55,-38.17,-39.53,0,*51
1489093540.54,40481,9.69,73074.3,-8.55,-38.11,-39.47,0,*53
1489093541.79,40482,9.69,73074.0,-8.55,-37.99,-39.53,0,*5A
1489093543.07,40483,9.69,73074.0,-8.51,-37.69,-39.23,0,*57
1489093544.3,40484,9.69,73072.0,-8.55,-37.45,-38.91,0,*52
1489093545.56,40485,9.69,73070.8,-8.51,-37.69,-39.09,0,*59
1489093546.8,40486,9.69,73070.8,-8.55,-37.87,-39.29,0,*5C
1489093548.03,40487,9.63,73068.5,-8.55,-37.57,-38.91,0,*52
1489093549.31,40488,9.69,73072.8,-8.51,-37.51,-38.91,0,*5F
1489093550.55,40489,9.69,73074.8,-8.51,-37.57,-38.85,0,*5D
1489093551.81,40490,9.69,73074.0,-8.51,-37.87,-39.23,0,*55
1489093553.07,40491,9.69,73070.0,-8.51,-37.87,-39.23,0,*54
1489093554.35,40492,9.69,73068.5,-8.51,-37.69,-39.03,0,*55
1489093555.61,40493,9.69,73074.3,-8.51,-37.51,-38.85,0,*50
1489093556.87,40494,9.69,73074.3,-8.51,-37.33,-38.67,0,*5F
1489093558.09,40495,9.69,73072.8,-8.51,-37.33,-38.73,0,*5B
1489093559.35,40496,9.69,73072.5,-8.51,-37.33,-38.67,0,*5D
1489093560.58,40497,9.63,73072.3,-8.49,-37.33,-38.67,0,*55
1489093561.79,40498,9.69,73072.5,-8.49,-37.33,-38.85,0,*56
1489093563.02,40499,9.69,73072.0,-8.49,-37.33,-38.67,0,*5B
1489093564.26,40500,9.69,73072.3,-8.49,-37.27,-38.67,0,*5F
1489093565.46,40501,9.69,73070.8,-8.49,-37.45,-38.85,0,*56
1489093566.72,40502,9.69,73072.0,-8.49,-37.51,-39.03,0,*5F
1489093567.95,40503,9.69,73072.8,-8.49,-37.51,-38.97,0,*52
1489093569.18,40504,9.69,73074.0,-8.47,-37.45,-38.85,0,*5D
1489093570.44,40505,9.69,73074.5,-8.47,-37.33,-38.67,0,*51
1489093571.68,40506,9.69,73072.8,-8.49,-37.15,-38.67,0,*58
1489093572.88,40507,9.69,73072.3,-8.49,-37.45,-38.85,0,*50
1489093574.09,40508,9.63,73070.0,-8.49,-37.33,-38.85,0,*5E
1489093575.33,40509,9.63,73070.0,-8.47,-37.45,-38.85,0,*50
1489093576.59,40510,9.69,73074.3,-8.47,-37.27,-38.79,0,*5F
1489093577.83,40511,9.69,73074.5,-8.45,-37.09,-38.61,0,*59
1489093579.08,40512,9.63,73072.5,-8.45,-37.21,-38.55,0,*57
1489093580.3,40513,9.69,73072.0,-8.45,-37.03,-38.43,0,*51
1489093581.54,40514,9.69,73070.3,-8.45,-37.09,-38.61,0,*5C
1489093582.78,40515,9.69,73072.3,-8.45,-37.21,-38.73,0,*54
1489093584.01,40516,9.63,73070.5,-8.43,-37.57,-38.97,0,*5A
1489093585.29,40517,9.63,73068.3,-8.43,-37.39,-38.79,0,*53
1489093586.53,40518,9.69,73070.8,-8.45,-37.45,-38.91,0,*57
1489093587.78,40519,9.69,73072.0,-8.43,-37.39,-38.97,0,*5D
1489093589.04,40520,9.69,73074.5,-8.43,-37.63,-38.97,0,*58
1489093590.27,40521,9.63,73068.5,-8.45,-37.81,-39.35,0,*5A
1489093591.49,40522,9.63,73070.8,-8.45,-37.75,-38.97,0,*5B
1489093592.77,40523,9.63,73070.0,-8.43,-37.63,-39.15,0,*50
1489093594.0,40524,9.69,73072.5,-8.45,-37.75,-39.15,0,*56
1489093595.28,40525,9.69,73074.0,-8.45,-37.81,-39.15,0,*5C
1489093596.51,40526,9.69,73072.0,-8.45,-37.75,-39.15,0,*54
1489093597.75,40527,9.69,73072.8,-8.45,-37.75,-39.15,0,*55
1489093599.01,40528,9.63,73074.0,-8.45,-37.99,-39.41,0,*59
1489093600.27,40529,9.69,73072.8,-8.45,-37.93,-39.29,0,*5C
1489093601.48,40530,9.69,73072.0,-8.45,-37.57,-38.97,0,*58
1489093602.77,40531,9.69,73068.0,-8.47,-37.63,-39.03,0,*50
1489093604.0,40532,9.69,73066.8,-8.47,-37.45,-38.85,0,*58
1489093605.23,40533,9.69,73064.3,-8.47,-37.45,-38.85,0,*59
1489093606.47,40534,9.63,73064.5,-8.47,-37.33,-38.85,0,*5F
1489093607.71,40535,9.69,73070.3,-8.45,-37.27,-38.79,0,*5A
1489093608.95,40536,9.69,73066.8,-8.45,-37.27,-38.79,0,*59
1489093610.19,40537,9.63,73064.3,-8.45,-37.09,-38.73,0,*5E
1489093611.44,40538,9.63,73066.5,-8.43,-37.27,-38.79,0,*51
1489093612.72,40539,9.69,73064.8,-8.45,-37.21,-38.79,0,*50
1489093613.97,40540,9.69,73064.0,-8.43,-37.39,-38.97,0,*51
1489093615.21,40541,9.69,73062.8,-8.45,-37.45,-38.91,0,*5B
1489093616.47,40542,9.63,73060.8,-8.45,-37.63,-39.15,0,*51
1489093617.74,40543,9.63,73060.8,-8.45,-37.63,-39.15,0,*50
1489093619.02,40544,9.63,73060.8,-8.43,-37.63,-39.15,0,*51
1489093620.3,40545,9.69,73064.3,-8.43,-37.39,-38.91,0,*52
1489093621.55,40546,9.63,73062.5,-8.43,-37.45,-38.91,0,*5A
1489093622.83,40547,9.69,73064.8,-8.43,-37.39,-38.91,0,*50
1489093624.09,40548,9.69,73066.3,-8.43,-37.57,-38.91,0,*57
1489093625.31,40549,9.63,73060.0,-8.43,-37.45,-38.97,0,*53
1489093626.54,40550,9.69,73064.0,-8.43,-37.45,-38.97,0,*5B
1489093627.79,40551,9.69,73064.5,-8.43,-37.63,-39.35,0,*57
1489093629.06,40552,9.69,73068.0,-8.45,-37.81,-39.29,0,*53
1489093630.29,40553,9.63,73064.0,-8.45,-37.75,-39.29,0,*59
1489093631.54,40554,9.63,73066.8,-8.43,-37.75,-39.41,0,*56
1489093632.81,40555,9.69,73068.0,-8.45,-37.81,-39.29,0,*54
1489093634.07,40556,9.69,73070.0,-8.45,-37.99,-39.53,0,*53
1489093635.33,40557,9.69,73068.5,-8.45,-37.99,-39.41,0,*51
1489093636.57,40558,9.69,73066.5,-8.45,-37.75,-39.29,0,*52
1489093637.78,40559,9.63,73064.0,-8.45,-37.57,-39.09,0,*51
1489093639.04,40560,9.69,73066.3,-8.47,-37.81,-39.35,0,*5D
1489093640.33,40561,9.69,73070.0,-8.47,-37.81,-39.41,0,*5F
1489093641.59,40562,9.63,73066.8,-8.47,-37.87,-39.41,0,*5A
1489093642.84,40563,9.69,73068.8,-8.47,-37.69,-39.35,0,*58
1489093644.05,40564,9.63,73068.5,-8.49,-37.87,-39.47,0,*54
1489093645.28,40565,9.69,73064.5,-8.47,-37.87,-39.35,0,*5E
1489093646.53,40566,9.69,73068.8,-8.47,-37.69,-39.35,0,*5D
1489093647.79,40567,9.69,73068.8,-8.47,-37.51,-38.97,0,*5E
1489093649.07,40568,9.63,73064.3,-8.47,-37.51,-39.03,0,*5D
1489093650.3,40569,9.69,73068.0,-8.47,-37.45,-38.97,0,*55
1489093651.57,40570,9.69,73074.0,-8.45,-37.39,-38.91,0,*52
1489093652.79,40571,9.69,73070.8,-8.45,-37.03,-38.55,0,*52
1489093654.03,40572,9.69,73068.0,-8.45,-36.91,-38.55,0,*5B
1489093655.25,40573,9.69,73064.5,-8.45,-37.03,-38.61,0,*57
1489093656.47,40574,9.69,73070.3,-8.43,-37.57,-38.97,0,*5E
1489093657.75,40575,9.69,73070.3,-8.45,-37.21,-38.79,0,*58
1489093658.96,40576,9.63,73062.3,-8.45,-37.03,-38.61,0,*52
1489093660.22,40577,9.69,73066.3,-8.43,-36.91,-38.55,0,*58
1489093661.48,40578,9.69,73064.3,-8.43,-36.91,-38.55,0,*57
1489093662.72,40579,9.69,73064.5,-8.45,-37.27,-38.79,0,*52
1489093663.98,40580,9.69,73070.5,-8.43,-37.39,-38.97,0,*5D
1489093665.2,40581,9.69,73064.8,-8.43,-37.45,-38.97,0,*57
1489093666.45,40582,9.69,73066.8,-8.45,-37.21,-38.73,0,*5A
1489093667.7,40583,9.69,73066.8,-8.43,-37.21,-38.73,0,*5D
1489093668.93,40584,9.69,73064.3,-8.43,-37.27,-38.73,0,*5C
1489093670.13,40585,9.69,73062.8,-8.41,-37.33,-38.85,0,*53
1489093671.38,40586,9.69,73062.3,-8.41,-37.21,-38.85,0,*53
1489093672.59,40587,9.69,73060.8,-8.41,-36.97,-38.55,0,*53
1489093673.83,40588,9.69,73062.5,-8.41,-36.85,-38.49,0,*52
1489093675.07,40589,9.69,73060.0,-8.41,-36.85,-38.29,0,*55
1489093676.31,40590,9.69,73066.0,-8.41,-36.85,-38.49,0,*5B
1489093677.54,40591,9.69,73062.0,-8.41,-36.79,-38.35,0,*52
1489093678.78,40592,9.69,73064.3,-8.39,-36.85,-38.55,0,*5B
1489093680.04,40593,9.69,73066.5,-8.39,-37.03,-38.67,0,*54
1489093681.28,40594,9.69,73064.3,-8.41,-37.21,-38.85,0,*50
1489093682.51,40595,9.69,73064.3,-8.41,-37.21,-38.73,0,*58
1489093683.74,40596,9.69,73066.5,-8.41,-37.21,-38.73,0,*5B
1489093685.03,40597,9.69,73062.0,-8.39,-37.21,-38.67,0,*50
1489093686.32,40598,9.69,73062.0,-8.39,-37.21,-38.67,0,*5F
1489093687.57,40599,9.69,73062.0,-8.39,-37.15,-38.67,0,*59
1489093688.81,40600,9.69,73062.5,-8.37,-36.91,-38.43,0,*5F
1489093690.1,40601,9.69,73060.5,-8.35,-36.79,-38.29,0,*56
1489093691.33,40602,9.63,73056.8,-8.37,-36.79,-38.43,0,*5B
1489093692.59,40603,9.69,73060.3,-8.37,-36.79,-38.49,0,*50
1489093693.85,40604,9.69,73064.5,-8.37,-36.91,-38.49,0,*51
1489093695.12,40605,9.69,73054.8,-8.37,-36.91,-38.49,0,*50
1489093696.35,40606,9.69,73054.0,-8.37,-36.79,-38.43,0,*5F
1489093697.61,40607,9.69,73054.5,-8.37,-36.79,-38.49,0,*54
1489093698.87,40608,9.63,73052.0,-8.35,-37.09,-38.61,0,*55
1489093700.13,40609,9.69,73056.5,-8.35,-36.91,-38.61,0,*54
1489093701.37,40610,9.69,73054.0,-8.33,-36.91,-38.55,0,*5D
1489093702.58,40611,9.63,73054.5,-8.33,-36.73,-38.17,0,*56
1489093703.8,40612,9.69,73052.8,-8.33,-36.85,-38.43,0,*5D
1489093705.03,40613,9.69,73054.0,-8.33,-37.27,-38.79,0,*5C
1489093706.26,40614,9.69,73056.0,-8.33,-37.27,-38.91,0,*5D
1489093707.55,40615,9.69,73054.8,-8.35,-37.09,-38.67,0,*5F